| time (UTC) | temp C | wind direction | speed KPH | gust KPH | rain 1hr cm | rain 24hr cm | rain mn cm | humidity % | barometer mb |
| 20260502123016 | 17 | 113 | 3.2 | 9.7 | 0.00 | 0.00 | 0.00 | 70 | 1014.9 |
| 20260502121520 | 17 | 119 | 4.8 | 12.9 | 0.00 | 0.00 | 0.00 | 69 | 1015.0 |
| 20260502114513 | 17 | 118 | 6.4 | 11.3 | 0.00 | 0.00 | 0.00 | 71 | 1015.5 |
| 20260502113014 | 17 | 77 | 6.4 | 11.3 | 0.00 | 0.00 | 0.00 | 70 | 1015.7 |
| 20260502111513 | 17 | 92 | 4.8 | 11.3 | 0.00 | 0.00 | 0.00 | 69 | 1015.8 |
| 20260502110013 | 17 | 109 | 4.8 | 11.3 | 0.00 | 0.00 | 0.00 | 69 | 1015.9 |
| 20260502104515 | 17 | 137 | 3.2 | 11.3 | 0.00 | 0.00 | 0.00 | 70 | 1016.0 |
| 20260502103030 | 16 | 127 | 4.8 | 9.7 | 0.00 | 0.00 | 0.00 | 70 | 1016.3 |
| 20260502101514 | 16 | 102 | 4.8 | 9.7 | 0.00 | 0.00 | 0.00 | 69 | 1016.6 |
| 20260502091515 | 15 | 123 | 4.8 | 12.9 | 0.00 | 0.00 | 0.00 | 74 | 1017.1 |
| 20260502071513 | 10 | 104 | 0.0 | 0.0 | 0.00 | 0.00 | 0.00 | 95 | 1018.0 |
| 20260502070022 | 9 | 207 | 0.0 | 1.6 | 0.00 | 0.00 | 0.00 | 95 | 1018.0 |
| 20260502064517 | 7 | 207 | 0.0 | 1.6 | 0.00 | 0.00 | 0.00 | 95 | 1018.1 |
| 20260502063028 | 7 | 207 | 0.0 | 0.0 | 0.00 | 0.00 | 0.00 | 94 | 1018.2 |
| 20260502061534 | 7 | 207 | 0.0 | 0.0 | 0.00 | 0.00 | 0.00 | 93 | 1018.2 |
| 20260502060028 | 7 | 207 | 0.0 | 1.6 | 0.00 | 0.00 | 0.00 | 93 | 1018.2 |
| 20260502054514 | 8 | 207 | 3.2 | 6.4 | 0.00 | 0.00 | 0.00 | 94 | 1018.3 |
| 20260502053021 | 7 | 222 | 6.4 | 9.7 | 0.00 | 0.00 | 0.00 | 94 | 1018.4 |
| 20260502051516 | 7 | 213 | 4.8 | 6.4 | 0.00 | 0.00 | 0.00 | 94 | 1018.3 |
| 20260502050026 | 7 | 209 | 6.4 | 9.7 | 0.00 | 0.00 | 0.00 | 94 | 1018.3 |
| 20260502044513 | 7 | 208 | 3.2 | 6.4 | 0.00 | 0.00 | 0.00 | 94 | 1018.2 |
| 20260502043027 | 7 | 208 | 0.0 | 3.2 | 0.00 | 0.00 | 0.00 | 93 | 1018.2 |
| 20260502041513 | 7 | 208 | 0.0 | 0.0 | 0.00 | 0.00 | 0.00 | 93 | 1018.1 |
| 20260502034515 | 7 | 208 | 0.0 | 0.0 | 0.00 | 0.00 | 0.00 | 94 | 1018.4 |
| 20260502033027 | 7 | 208 | 0.0 | 0.0 | 0.00 | 0.00 | 0.00 | 93 | 1018.7 |
| 20260502030024 | 8 | 208 | 0.0 | 0.0 | 0.00 | 0.00 | 0.00 | 93 | 1018.8 |
| 20260502024514 | 8 | 208 | 3.2 | 4.8 | 0.00 | 0.00 | 0.00 | 93 | 1018.9 |
| 20260502023022 | 8 | 208 | 4.8 | 6.4 | 0.00 | 0.00 | 0.00 | 93 | 1019.0 |
| 20260502021515 | 8 | 209 | 4.8 | 6.4 | 0.00 | 0.00 | 0.00 | 93 | 1019.2 |
| 20260502020026 | 8 | 204 | 4.8 | 6.4 | 0.00 | 0.00 | 0.00 | 93 | 1019.3 |
| 20260502014515 | 8 | 204 | 4.8 | 6.4 | 0.00 | 0.00 | 0.00 | 92 | 1019.4 |
| 20260502013025 | 8 | 204 | 4.8 | 6.4 | 0.00 | 0.00 | 0.00 | 93 | 1019.5 |
| 20260502011514 | 8 | 204 | 4.8 | 8.0 | 0.00 | 0.00 | 0.00 | 93 | 1019.6 |
| 20260502004513 | 8 | 209 | 4.8 | 6.4 | 0.00 | 0.00 | 0.00 | 92 | 1019.8 |
| 20260502003018 | 8 | 209 | 0.0 | 4.8 | 0.00 | 0.00 | 0.00 | 92 | 1019.8 |
| 20260502001514 | 8 | 209 | 0.0 | 0.0 | 0.00 | 0.00 | 0.00 | 91 | 1020.0 |
| 20260502000024 | 8 | 209 | 0.0 | 0.0 | 0.00 | 0.00 | 0.00 | 91 | 1019.9 |
| 20260501234515 | 8 | 209 | 0.0 | 0.0 | 0.00 | 0.00 | 0.00 | 90 | 1020.1 |
| 20260501233021 | 9 | 209 | 0.0 | 0.0 | 0.00 | 0.00 | 0.00 | 91 | 1020.0 |
| 20260501231519 | 9 | 209 | 0.0 | 0.0 | 0.00 | 0.00 | 0.00 | 90 | 1020.2 |
| 20260501230041 | 9 | 209 | 1.6 | 3.2 | 0.00 | 0.00 | 0.00 | 90 | 1020.3 |
| 20260501224512 | 9 | 209 | 4.8 | 6.4 | 0.00 | 0.00 | 0.00 | 90 | 1020.4 |
| 20260501223031 | 9 | 209 | 4.8 | 6.4 | 0.00 | 0.00 | 0.00 | 90 | 1020.4 |
| 20260501221518 | 10 | 208 | 6.4 | 8.0 | 0.00 | 0.00 | 0.00 | 89 | 1020.5 |
| 20260501214513 | 10 | 236 | 3.2 | 4.8 | 0.00 | 0.00 | 0.00 | 88 | 1020.4 |
| 20260501213017 | 11 | 236 | 3.2 | 6.4 | 0.00 | 0.00 | 0.00 | 87 | 1020.5 |
| 20260501210014 | 12 | 236 | 0.0 | 0.0 | 0.00 | 0.00 | 0.00 | 87 | 1020.3 |
| 20260501204514 | 12 | 236 | 0.0 | 0.0 | 0.00 | 0.00 | 0.00 | 87 | 1020.3 |
| 20260501203025 | 12 | 236 | 1.6 | 3.2 | 0.00 | 0.00 | 0.00 | 86 | 1020.3 |
| 20260501201512 | 12 | 236 | 3.2 | 6.4 | 0.00 | 0.00 | 0.00 | 85 | 1020.3 |
| 20260501200025 | 12 | 201 | 3.2 | 6.4 | 0.00 | 0.00 | 0.00 | 84 | 1020.3 |
| 20260501194511 | 12 | 244 | 1.6 | 3.2 | 0.00 | 0.00 | 0.00 | 84 | 1020.3 |
| 20260501193021 | 12 | 244 | 3.2 | 8.0 | 0.00 | 0.00 | 0.00 | 83 | 1020.2 |
| 20260501184516 | 13 | 254 | 8.0 | 11.3 | 0.00 | 0.00 | 0.00 | 82 | 1019.9 |
| 20260501183012 | 13 | 218 | 8.0 | 12.9 | 0.00 | 0.00 | 0.00 | 81 | 1019.7 |
| 20260501180021 | 15 | 234 | 9.7 | 12.9 | 0.00 | 0.00 | 0.00 | 80 | 1019.7 |
| 20260501171513 | 16 | 335 | 6.4 | 12.9 | 0.00 | 0.00 | 0.00 | 74 | 1019.6 |
| 20260501170024 | 17 | 312 | 8.0 | 14.5 | 0.00 | 0.00 | 0.00 | 73 | 1019.6 |
| 20260501164514 | 17 | 323 | 3.2 | 8.0 | 0.00 | 0.00 | 0.00 | 73 | 1019.7 |
| 20260501163022 | 17 | 321 | 6.4 | 12.9 | 0.00 | 0.00 | 0.00 | 72 | 1019.7 |